Regional Weather Roundup
Issued by NWS Cleveland, OH

Home | Current Version | Previous Version | Graphics & Text | Print | Product List | Glossary On
Versions: 1 2 3 4 5 6 7 8 9 10 11 12 13 14 15 16 17 18 19 20 21 22 23 24 25 26 27 28 29 30 31 32 33 34 35 36 37 38 39 40 41 42 43 44 45 46 47 48 49 50
000
ASUS41 KCLE 130502
RWRCLE
OHIO REGIONAL WEATHER ROUNDUP
NATIONAL WEATHER SERVICE CLEVELAND, OH
100 AM EDT SUN JUL 13 2014

NOTE: "FAIR" INDICATES FEW OR NO CLOUDS BELOW 12,000 FEET WITH NO
SIGNIFICANT WEATHER AND/OR OBSTRUCTIONS TO VISIBILITY.

OHZ001>008-015>018-024>027-034-035-043-044-130600-
   NORTHWEST OHIO

CITY           SKY/WX    TMP DP  RH WIND       PRES   REMARKS
DEFIANCE       CLOUDY    75  68  78 S7        29.95F
FINDLAY        MOCLDY    75  69  81 S12       29.96F
TOLEDO EXPRESS CLOUDY    74  67  78 SW7       29.94F
TOLEDO EXEC    MOCLDY    75  68  78 S9        29.95F
LIMA           MOCLDY    77  69  76 S10       29.99F
$$

OHZ009>014-019>023-028>033-038-089-130600-
   NORTHEAST OHIO

CITY           SKY/WX    TMP DP  RH WIND       PRES   REMARKS
CLE-HOPKINS    MOCLDY    75  63  66 S12       30.00F
CLE-LAKEFRONT  CLEAR     79  63  57 S14       29.96S
CUY CO. ARPT   NOT AVBL
LORAIN-ELYRIA  PTCLDY    77  65  66 S10       29.99F
ASHTABULA      MOCLDY    75  61  61 SW8       30.00F
AKRON-CANTON   PTCLDY    74  62  66 SW7       30.04S
WOOSTER        CLOUDY    74  64  71 S8        30.03F
MANSFIELD      MOCLDY    73  65  75 S8        30.04S
YOUNGSTOWN     MOCLDY    73  63  70 S7        30.03F
$$

OHZ042-051>053-060>062-070>072-077>081-130600-
  SOUTHWEST OHIO

CITY           SKY/WX    TMP DP  RH WIND       PRES   REMARKS
CINC-COVINGTON CLOUDY    76  67  73 S8        30.05F
CINC-LUNKEN    CLOUDY    74  69  85 S5        30.04F
HAMILTON       CLOUDY    75  69  81 SW3       30.04F
DAYTON         MOCLDY    78  67  68 S12       30.04S
WRIGHT-PAT AFB NOT AVBL
DAYTON GENERAL MOCLDY    74  68  81 S7        30.04S
WILMINGTON     CLOUDY    74  66  76 SW6       30.06R
$$

OHZ036-037-039>041-045>050-054>059-063>069-073>076-082>088-130600-
  CENTRAL AND SOUTHEAST OHIO

CITY           SKY/WX    TMP DP  RH WIND       PRES   REMARKS
COLUMBUS       CLOUDY    78  65  63 S6        30.04S
OSU AIRPORT    MOCLDY    77  66  68 S7        30.04S
BOLTON FIELD   MOCLDY    73  68  84 S5        30.05R
RICKENBACK AFB MOCLDY    75  63  66 S5        30.03S
NEWARK         CLOUDY    71  66  84 CALM      30.04F HAZE
MARION         CLOUDY    75  67  76 S8        30.02F HAZE
LANCASTER      MOCLDY    72  66  81 CALM      30.05F
ZANESVILLE     CLOUDY    71  66  84 CALM      30.05F
NEW PHILLY     PTCLDY    69  65  86 SE5       30.05S
$$



USA.gov is the U.S. government's official web portal to all federal, state and local government web resources and services.